| time (UTC) | temp C | wind direction | speed KPH | gust KPH | rain 1hr cm | rain 24hr cm | rain mn cm | humidity % | barometer mb |
| 20260506080751 | 10 | 39 | 1.6 | 6.4 | 0.00 | 0.00 | 0.00 | 94 | 1006.4 |
| 20260506080252 | 10 | 22 | 3.2 | 8.0 | 0.00 | 0.00 | 0.00 | 94 | 1006.4 |
| 20260506073251 | 9 | 13 | 1.6 | 6.4 | 0.00 | 0.00 | 0.00 | 95 | 1006.4 |
| 20260506072751 | 9 | 350 | 3.2 | 6.4 | 0.00 | 0.00 | 0.00 | 95 | 1006.8 |
| 20260506072251 | 9 | 46 | 3.2 | 9.7 | 0.00 | 0.00 | 0.00 | 96 | 1006.8 |
| 20260506071751 | 9 | 9 | 4.8 | 11.3 | 0.00 | 0.00 | 0.00 | 96 | 1006.8 |
| 20260506071251 | 9 | 12 | 3.2 | 11.3 | 0.00 | 0.00 | 0.00 | 96 | 1007.1 |
| 20260506070751 | 9 | 54 | 3.2 | 6.4 | 0.00 | 0.00 | 0.00 | 96 | 1007.1 |
| 20260506070251 | 9 | 74 | 1.6 | 4.8 | 0.00 | 0.00 | 0.00 | 97 | 1007.1 |
| 20260506062251 | 8 | 38 | 0.0 | 3.2 | 0.00 | 0.00 | 0.00 | 96 | 1007.8 |
| 20260506061752 | 8 | 304 | 0.0 | 0.0 | 0.00 | 0.00 | 0.00 | 96 | 1007.5 |
| 20260506061252 | 8 | 60 | 0.0 | 1.6 | 0.00 | 0.00 | 0.00 | 96 | 1007.8 |
| 20260506060751 | 8 | 51 | 0.0 | 0.0 | 0.00 | 0.00 | 0.00 | 96 | 1007.8 |
| 20260506060251 | 8 | 3 | 0.0 | 3.2 | 0.00 | 0.00 | 0.00 | 96 | 1007.8 |
| 20260506051252 | 9 | 69 | 0.0 | 1.6 | 0.00 | 0.00 | 0.00 | 94 | 1008.5 |
| 20260506050752 | 9 | 310 | 0.0 | 3.2 | 0.00 | 0.00 | 0.00 | 94 | 1008.5 |
| 20260506050251 | 10 | 80 | 0.0 | 0.0 | 0.00 | 0.00 | 0.00 | 94 | 1008.5 |
| 20260506044752 | 10 | 333 | 0.0 | 1.6 | 0.00 | 0.00 | 0.00 | 93 | 1008.5 |
| 20260506044252 | 10 | 12 | 0.0 | 0.0 | 0.00 | 0.00 | 0.00 | 92 | 1008.5 |
| 20260506043751 | 10 | 63 | 0.0 | 3.2 | 0.00 | 0.00 | 0.00 | 92 | 1008.5 |
| 20260506043252 | 10 | 319 | 0.0 | 4.8 | 0.00 | 0.00 | 0.00 | 91 | 1008.5 |
| 20260506042752 | 10 | 84 | 0.0 | 3.2 | 0.00 | 0.00 | 0.00 | 91 | 1008.5 |
| 20260506042251 | 10 | 2 | 1.6 | 4.8 | 0.00 | 0.00 | 0.00 | 91 | 1008.5 |
| 20260506041751 | 10 | 6 | 1.6 | 4.8 | 0.00 | 0.00 | 0.00 | 90 | 1008.5 |
| 20260506041251 | 10 | 16 | 0.0 | 4.8 | 0.00 | 0.00 | 0.00 | 90 | 1008.5 |
| 20260506040752 | 11 | 32 | 0.0 | 3.2 | 0.00 | 0.00 | 0.00 | 90 | 1008.5 |
| 20260506040251 | 11 | 54 | 0.0 | 3.2 | 0.00 | 0.00 | 0.53 | 89 | 1008.5 |
| 20260506035751 | 11 | 43 | 1.6 | 6.4 | 0.00 | 0.00 | 0.53 | 90 | 1008.8 |
| 20260506035251 | 11 | 49 | 1.6 | 4.8 | 0.00 | 0.00 | 0.53 | 90 | 1008.5 |
| 20260506034752 | 11 | 217 | 1.6 | 4.8 | 0.00 | 0.00 | 0.53 | 89 | 1008.8 |
| 20260506034251 | 11 | 93 | 1.6 | 4.8 | 0.00 | 0.00 | 0.53 | 89 | 1008.8 |
| 20260506033752 | 11 | 8 | 0.0 | 1.6 | 0.00 | 0.00 | 0.53 | 89 | 1008.8 |
| 20260506033251 | 11 | 316 | 1.6 | 6.4 | 0.00 | 0.00 | 0.53 | 89 | 1008.8 |
| 20260506032752 | 11 | 27 | 3.2 | 8.0 | 0.00 | 0.00 | 0.53 | 88 | 1008.8 |
| 20260506032251 | 11 | 33 | 1.6 | 6.4 | 0.00 | 0.00 | 0.53 | 88 | 1009.1 |
| 20260506031751 | 11 | 19 | 3.2 | 6.4 | 0.00 | 0.00 | 0.53 | 87 | 1008.8 |
| 20260506031251 | 11 | 20 | 3.2 | 6.4 | 0.00 | 0.00 | 0.53 | 87 | 1008.8 |
| 20260506030751 | 11 | 5 | 3.2 | 9.7 | 0.00 | 0.00 | 0.53 | 87 | 1008.8 |
| 20260506030252 | 11 | 34 | 3.2 | 8.0 | 0.00 | 0.00 | 0.53 | 87 | 1008.8 |
| 20260506025751 | 11 | 54 | 3.2 | 6.4 | 0.00 | 0.00 | 0.53 | 87 | 1009.1 |
| 20260506025256 | 11 | 65 | 3.2 | 11.3 | 0.00 | 0.00 | 0.53 | 87 | 1009.1 |
| 20260506024752 | 11 | 106 | 1.6 | 8.0 | 0.00 | 0.00 | 0.53 | 87 | 1009.1 |
| 20260506024251 | 11 | 63 | 1.6 | 8.0 | 0.00 | 0.00 | 0.53 | 88 | 1009.1 |
| 20260506023751 | 11 | 55 | 3.2 | 6.4 | 0.00 | 0.00 | 0.53 | 87 | 1009.1 |
| 20260506023252 | 11 | 45 | 1.6 | 4.8 | 0.00 | 0.00 | 0.53 | 88 | 1009.5 |
| 20260506022753 | 11 | 95 | 1.6 | 8.0 | 0.00 | 0.00 | 0.53 | 87 | 1009.5 |
| 20260506022251 | 11 | 58 | 1.6 | 6.4 | 0.00 | 0.00 | 0.53 | 87 | 1009.1 |
| 20260506021751 | 11 | 55 | 1.6 | 4.8 | 0.00 | 0.00 | 0.53 | 88 | 1009.1 |
| 20260506021252 | 11 | 34 | 1.6 | 6.4 | 0.00 | 0.00 | 0.53 | 87 | 1009.1 |
| 20260506020752 | 11 | 66 | 0.0 | 4.8 | 0.00 | 0.00 | 0.53 | 87 | 1009.1 |
| 20260506020252 | 11 | 34 | 1.6 | 8.0 | 0.00 | 0.00 | 0.53 | 87 | 1008.8 |
| 20260506015752 | 11 | 2 | 3.2 | 6.4 | 0.00 | 0.00 | 0.53 | 86 | 1008.8 |
| 20260506015251 | 11 | 17 | 4.8 | 9.7 | 0.00 | 0.00 | 0.53 | 86 | 1008.8 |
| 20260506014751 | 11 | 98 | 4.8 | 11.3 | 0.00 | 0.00 | 0.53 | 86 | 1008.5 |
| 20260506014252 | 12 | 22 | 4.8 | 9.7 | 0.00 | 0.00 | 0.53 | 86 | 1008.1 |
| 20260506013752 | 12 | 307 | 4.8 | 12.9 | 0.00 | 0.00 | 0.53 | 86 | 1008.1 |
| 20260506013251 | 12 | 78 | 3.2 | 9.7 | 0.00 | 0.00 | 0.53 | 86 | 1008.1 |
| 20260506012752 | 12 | 20 | 4.8 | 8.0 | 0.00 | 0.00 | 0.53 | 86 | 1008.1 |
| 20260506012252 | 12 | 26 | 3.2 | 9.7 | 0.00 | 0.00 | 0.53 | 86 | 1007.8 |
| 20260506011751 | 12 | 354 | 4.8 | 11.3 | 0.00 | 0.00 | 0.53 | 86 | 1007.8 |
| 20260506011251 | 12 | 41 | 8.0 | 24.1 | 0.00 | 0.00 | 0.53 | 85 | 1007.8 |
| 20260506010754 | 12 | 55 | 6.4 | 17.7 | 0.00 | 0.00 | 0.53 | 85 | 1007.8 |
| 20260506010252 | 12 | 322 | 4.8 | 12.9 | 0.00 | 0.00 | 0.53 | 86 | 1007.8 |
| 20260506005751 | 12 | 338 | 8.0 | 22.5 | 0.00 | 0.00 | 0.53 | 86 | 1007.8 |
| 20260506005251 | 13 | 49 | 4.8 | 16.1 | 0.00 | 0.00 | 0.53 | 87 | 1008.1 |
| 20260506004752 | 13 | 27 | 8.0 | 17.7 | 0.00 | 0.00 | 0.53 | 87 | 1008.1 |
| 20260506004251 | 14 | 356 | 9.7 | 24.1 | 0.00 | 0.00 | 0.53 | 88 | 1008.1 |
| 20260506003752 | 15 | 300 | 6.4 | 17.7 | 0.00 | 0.00 | 0.53 | 93 | 1008.1 |
| 20260506003251 | 15 | 65 | 1.6 | 4.8 | 0.00 | 0.00 | 0.53 | 94 | 1007.8 |
| 20260506002751 | 15 | 273 | 1.6 | 6.4 | 0.00 | 0.00 | 0.53 | 93 | 1007.8 |
| 20260506002251 | 15 | 330 | 1.6 | 4.8 | 0.00 | 0.00 | 0.53 | 93 | 1007.5 |
| 20260506001751 | 15 | 35 | 3.2 | 12.9 | 0.00 | 0.00 | 0.53 | 93 | 1007.5 |
| 20260506001251 | 15 | 331 | 3.2 | 9.7 | 0.00 | 0.00 | 0.53 | 92 | 1007.5 |
| 20260506000752 | 16 | 41 | 4.8 | 8.0 | 0.00 | 0.00 | 0.53 | 90 | 1007.5 |
| 20260506000254 | 16 | 246 | 1.6 | 4.8 | 0.00 | 0.00 | 0.53 | 90 | 1007.5 |
| 20260505235751 | 16 | 141 | 3.2 | 6.4 | 0.00 | 0.00 | 0.53 | 90 | 1007.5 |
| 20260505235251 | 16 | 192 | 1.6 | 9.7 | 0.00 | 0.00 | 0.53 | 89 | 1007.1 |
| 20260505234751 | 16 | 169 | 3.2 | 9.7 | 0.00 | 0.00 | 0.53 | 89 | 1007.1 |
| 20260505234252 | 15 | 253 | 3.2 | 9.7 | 0.00 | 0.00 | 0.53 | 89 | 1007.1 |
| 20260505233751 | 16 | 233 | 3.2 | 12.9 | 0.00 | 0.00 | 0.53 | 90 | 1007.1 |
| 20260505233252 | 16 | 221 | 1.6 | 4.8 | 0.00 | 0.00 | 0.53 | 90 | 1006.8 |
| 20260505232753 | 15 | 185 | 0.0 | 3.2 | 0.00 | 0.00 | 0.53 | 90 | 1006.8 |
| 20260505232252 | 16 | 278 | 0.0 | 4.8 | 0.00 | 0.00 | 0.53 | 90 | 1006.8 |
| 20260505231751 | 15 | 0 | 3.2 | 11.3 | 0.00 | 0.00 | 0.53 | 89 | 1006.8 |
| 20260505231252 | 16 | 300 | 1.6 | 11.3 | 0.00 | 0.00 | 0.53 | 90 | 1006.4 |
| 20260505230752 | 16 | 330 | 1.6 | 6.4 | 0.00 | 0.00 | 0.53 | 89 | 1006.4 |
| 20260505230251 | 16 | 249 | 6.4 | 22.5 | 0.00 | 0.00 | 0.51 | 88 | 1006.4 |
| 20260505225751 | 16 | 91 | 4.8 | 16.1 | 0.00 | 0.00 | 0.51 | 87 | 1006.4 |
| 20260505225251 | 17 | 138 | 6.4 | 14.5 | 0.00 | 0.00 | 0.51 | 87 | 1006.8 |
| 20260505224751 | 17 | 232 | 11.3 | 22.5 | 0.00 | 0.00 | 0.51 | 85 | 1006.8 |
| 20260505224251 | 18 | 207 | 9.7 | 24.1 | 0.00 | 0.00 | 0.48 | 81 | 1006.8 |
| 20260505223751 | 18 | 169 | 1.6 | 6.4 | 0.00 | 0.00 | 0.48 | 81 | 1006.4 |
| 20260505223251 | 18 | 170 | 1.6 | 3.2 | 0.00 | 0.00 | 0.48 | 80 | 1006.1 |
| 20260505222751 | 19 | 160 | 1.6 | 6.4 | 0.00 | 0.00 | 0.48 | 77 | 1006.1 |
| 20260505222251 | 19 | 204 | 1.6 | 6.4 | 0.00 | 0.00 | 0.48 | 76 | 1006.1 |
| 20260505221751 | 19 | 235 | 3.2 | 9.7 | 0.00 | 0.00 | 0.48 | 76 | 1006.1 |
| 20260505221252 | 19 | 299 | 1.6 | 6.4 | 0.00 | 0.00 | 0.48 | 76 | 1006.1 |
| 20260505220751 | 19 | 308 | 3.2 | 9.7 | 0.00 | 0.00 | 0.48 | 76 | 1006.1 |
| 20260505220251 | 19 | 15 | 3.2 | 9.7 | 0.00 | 0.00 | 0.48 | 77 | 1006.1 |
| 20260505215752 | 19 | 325 | 3.2 | 16.1 | 0.00 | 0.00 | 0.48 | 77 | 1006.1 |
| 20260505215251 | 18 | 61 | 3.2 | 11.3 | 0.00 | 0.00 | 0.48 | 79 | 1006.1 |
| 20260505214751 | 18 | 269 | 1.6 | 6.4 | 0.00 | 0.00 | 0.48 | 78 | 1006.1 |
| 20260505214252 | 18 | 232 | 3.2 | 11.3 | 0.00 | 0.00 | 0.48 | 79 | 1006.1 |
| 20260505213751 | 18 | 69 | 1.6 | 4.8 | 0.00 | 0.00 | 0.48 | 81 | 1005.8 |
| 20260505213251 | 18 | 170 | 4.8 | 11.3 | 0.00 | 0.00 | 0.48 | 82 | 1005.8 |
| 20260505212751 | 18 | 212 | 3.2 | 9.7 | 0.00 | 0.00 | 0.48 | 82 | 1005.8 |
| 20260505212251 | 18 | 227 | 3.2 | 8.0 | 0.00 | 0.00 | 0.48 | 80 | 1005.4 |
| 20260505211752 | 18 | 188 | 1.6 | 6.4 | 0.00 | 0.00 | 0.48 | 81 | 1005.8 |
| 20260505211251 | 18 | 241 | 3.2 | 8.0 | 0.00 | 0.00 | 0.48 | 82 | 1005.8 |
| 20260505210751 | 18 | 44 | 3.2 | 11.3 | 0.00 | 0.00 | 0.48 | 86 | 1005.8 |
| 20260505210253 | 18 | 300 | 1.6 | 4.8 | 0.00 | 0.00 | 0.48 | 87 | 1005.8 |
| 20260505205752 | 18 | 233 | 1.6 | 4.8 | 0.00 | 0.00 | 0.48 | 87 | 1005.8 |
| 20260505205251 | 18 | 258 | 1.6 | 6.4 | 0.00 | 0.00 | 0.48 | 87 | 1005.8 |
| 20260505204751 | 17 | 318 | 0.0 | 3.2 | 0.00 | 0.00 | 0.48 | 89 | 1005.8 |
| 20260505204252 | 17 | 215 | 0.0 | 3.2 | 0.00 | 0.00 | 0.48 | 91 | 1006.1 |
| 20260505203751 | 17 | 342 | 0.0 | 0.0 | 0.00 | 0.00 | 0.48 | 94 | 1006.1 |
| 20260505203253 | 16 | 302 | 0.0 | 1.6 | 0.00 | 0.00 | 0.48 | 94 | 1006.1 |
| 20260505202752 | 16 | 302 | 0.0 | 1.6 | 0.00 | 0.00 | 0.48 | 94 | 1006.4 |
| 20260505202251 | 16 | 191 | 0.0 | 3.2 | 0.00 | 0.00 | 0.48 | 94 | 1006.4 |
| 20260505201751 | 15 | 190 | 0.0 | 3.2 | 0.00 | 0.00 | 0.48 | 95 | 1006.8 |
| 20260505201251 | 15 | 214 | 3.2 | 8.0 | 0.00 | 0.00 | 0.48 | 95 | 1007.1 |
| 20260505200752 | 15 | 236 | 3.2 | 8.0 | 0.00 | 0.00 | 0.46 | 95 | 1007.1 |
| 20260505200253 | 15 | 144 | 3.2 | 8.0 | 0.00 | 0.00 | 0.46 | 95 | 1007.1 |
| 20260505195751 | 15 | 235 | 4.8 | 14.5 | 0.00 | 0.00 | 0.46 | 95 | 1007.1 |
| 20260505195252 | 15 | 196 | 6.4 | 16.1 | 0.00 | 0.00 | 0.41 | 94 | 1007.5 |
| 20260505194751 | 15 | 264 | 6.4 | 17.7 | 0.00 | 0.00 | 0.33 | 94 | 1007.1 |
| 20260505194252 | 15 | 284 | 8.0 | 19.3 | 0.00 | 0.00 | 0.30 | 94 | 1007.1 |
| 20260505193752 | 16 | 234 | 4.8 | 11.3 | 0.00 | 0.00 | 0.25 | 93 | 1006.8 |
| 20260505193252 | 16 | 225 | 1.6 | 4.8 | 0.00 | 0.00 | 0.23 | 91 | 1006.8 |
| 20260505192751 | 16 | 189 | 1.6 | 4.8 | 0.00 | 0.00 | 0.23 | 90 | 1006.4 |
| 20260505192252 | 16 | 225 | 1.6 | 6.4 | 0.00 | 0.00 | 0.23 | 89 | 1006.4 |
| 20260505191752 | 16 | 291 | 4.8 | 14.5 | 0.00 | 0.00 | 0.20 | 87 | 1006.4 |
| 20260505191251 | 17 | 302 | 4.8 | 11.3 | 0.00 | 0.00 | 0.15 | 83 | 1006.4 |
| 20260505190751 | 18 | 335 | 6.4 | 14.5 | 0.00 | 0.00 | 0.08 | 75 | 1005.4 |
| 20260505190251 | 20 | 334 | 4.8 | 8.0 | 0.00 | 0.00 | 0.05 | 66 | 1005.8 |
| 20260505185751 | 22 | 257 | 9.7 | 25.7 | 0.00 | 0.00 | 0.05 | 56 | 1005.1 |
| 20260505185251 | 22 | 264 | 6.4 | 16.1 | 0.00 | 0.00 | 0.05 | 48 | 1005.1 |
| 20260505184752 | 22 | 188 | 9.7 | 16.1 | 0.00 | 0.00 | 0.05 | 48 | 1005.1 |
| 20260505184251 | 23 | 283 | 11.3 | 22.5 | 0.00 | 0.00 | 0.05 | 47 | 1004.7 |
| 20260505183751 | 23 | 266 | 9.7 | 19.3 | 0.00 | 0.00 | 0.05 | 48 | 1004.7 |
| 20260505183251 | 23 | 199 | 11.3 | 22.5 | 0.00 | 0.00 | 0.05 | 48 | 1004.7 |
| 20260505182752 | 23 | 228 | 9.7 | 20.9 | 0.00 | 0.00 | 0.05 | 48 | 1004.7 |
| 20260505182252 | 23 | 254 | 6.4 | 12.9 | 0.00 | 0.00 | 0.05 | 49 | 1004.7 |
| 20260505181754 | 23 | 310 | 9.7 | 20.9 | 0.00 | 0.00 | 0.05 | 49 | 1005.1 |
| 20260505181251 | 23 | 302 | 9.7 | 16.1 | 0.00 | 0.00 | 0.05 | 49 | 1005.1 |
| 20260505180752 | 23 | 201 | 14.5 | 30.6 | 0.00 | 0.00 | 0.05 | 47 | 1005.1 |
| 20260505180252 | 23 | 270 | 11.3 | 22.5 | 0.00 | 0.00 | 0.05 | 51 | 1005.1 |
| 20260505175752 | 23 | 266 | 4.8 | 24.1 | 0.00 | 0.00 | 0.05 | 50 | 1005.4 |
| 20260505175253 | 23 | 326 | 6.4 | 17.7 | 0.00 | 0.00 | 0.05 | 53 | 1005.4 |
| 20260505174752 | 22 | 48 | 4.8 | 11.3 | 0.00 | 0.00 | 0.05 | 54 | 1005.4 |
| 20260505174252 | 22 | 217 | 3.2 | 11.3 | 0.00 | 0.00 | 0.05 | 55 | 1005.8 |
| 20260505173752 | 21 | 206 | 4.8 | 14.5 | 0.00 | 0.00 | 0.05 | 57 | 1005.8 |
| 20260505173253 | 21 | 25 | 4.8 | 14.5 | 0.00 | 0.00 | 0.05 | 59 | 1005.8 |
| 20260505172751 | 21 | 291 | 6.4 | 22.5 | 0.00 | 0.00 | 0.05 | 59 | 1005.8 |
| 20260505172252 | 21 | 281 | 6.4 | 14.5 | 0.00 | 0.00 | 0.05 | 58 | 1005.8 |
| 20260505171751 | 22 | 289 | 8.0 | 17.7 | 0.00 | 0.00 | 0.05 | 56 | 1005.8 |
| 20260505171251 | 22 | 244 | 11.3 | 19.3 | 0.00 | 0.00 | 0.05 | 53 | 1005.8 |
| 20260505170752 | 22 | 222 | 8.0 | 25.7 | 0.00 | 0.00 | 0.05 | 53 | 1005.4 |
| 20260505170251 | 23 | 246 | 4.8 | 14.5 | 0.00 | 0.00 | 0.05 | 52 | 1005.8 |
| 20260505165751 | 23 | 144 | 6.4 | 14.5 | 0.00 | 0.00 | 0.05 | 52 | 1005.4 |
| 20260505165251 | 23 | 174 | 8.0 | 17.7 | 0.00 | 0.00 | 0.05 | 51 | 1005.1 |
| 20260505164752 | 23 | 243 | 11.3 | 25.7 | 0.00 | 0.00 | 0.05 | 50 | 1005.4 |
| 20260505164251 | 23 | 231 | 8.0 | 17.7 | 0.00 | 0.00 | 0.05 | 50 | 1005.1 |
| 20260505163751 | 23 | 310 | 11.3 | 24.1 | 0.00 | 0.00 | 0.05 | 51 | 1005.1 |
| 20260505163251 | 23 | 345 | 4.8 | 16.1 | 0.00 | 0.00 | 0.05 | 50 | 1005.4 |
| 20260505162752 | 24 | 155 | 8.0 | 20.9 | 0.00 | 0.00 | 0.05 | 50 | 1005.4 |
| 20260505162252 | 23 | 238 | 9.7 | 24.1 | 0.00 | 0.00 | 0.05 | 51 | 1005.4 |
| 20260505161752 | 23 | 98 | 6.4 | 14.5 | 0.00 | 0.00 | 0.05 | 52 | 1005.8 |
| 20260505161252 | 23 | 269 | 8.0 | 14.5 | 0.00 | 0.00 | 0.05 | 51 | 1005.8 |
| 20260505160751 | 23 | 356 | 16.1 | 29.0 | 0.00 | 0.00 | 0.05 | 51 | 1005.8 |
| 20260505160252 | 23 | 297 | 11.3 | 22.5 | 0.00 | 0.00 | 0.05 | 50 | 1005.8 |
| 20260505153252 | 23 | 238 | 14.5 | 25.7 | 0.00 | 0.00 | 0.05 | 53 | 1005.8 |
| 20260505152752 | 23 | 255 | 11.3 | 22.5 | 0.00 | 0.00 | 0.05 | 52 | 1005.8 |
| 20260505152253 | 23 | 257 | 11.3 | 19.3 | 0.00 | 0.00 | 0.05 | 52 | 1005.4 |
| 20260505151751 | 23 | 178 | 8.0 | 16.1 | 0.00 | 0.00 | 0.05 | 53 | 1005.4 |
| 20260505151251 | 23 | 248 | 6.4 | 14.5 | 0.00 | 0.00 | 0.05 | 53 | 1005.4 |
| 20260505150752 | 23 | 220 | 8.0 | 20.9 | 0.00 | 0.00 | 0.05 | 52 | 1005.4 |
| 20260505150251 | 22 | 313 | 11.3 | 27.4 | 0.00 | 0.00 | 0.05 | 58 | 1005.4 |
| 20260505140251 | 20 | 232 | 8.0 | 19.3 | 0.00 | 0.00 | 0.05 | 60 | 1005.8 |
| 20260505130252 | 18 | 205 | 4.8 | 14.5 | 0.00 | 0.00 | 0.05 | 67 | 1006.4 |
| 20260505124752 | 17 | 168 | 8.0 | 25.7 | 0.00 | 0.00 | 0.05 | 70 | 1006.4 |
| 20260505124251 | 16 | 175 | 6.4 | 14.5 | 0.00 | 0.00 | 0.05 | 71 | 1006.4 |
| 20260505123751 | 17 | 292 | 4.8 | 12.9 | 0.00 | 0.00 | 0.05 | 75 | 1006.4 |
| 20260505123251 | 16 | 159 | 6.4 | 20.9 | 0.00 | 0.00 | 0.05 | 73 | 1006.4 |
| 20260505122751 | 15 | 245 | 4.8 | 12.9 | 0.00 | 0.00 | 0.05 | 78 | 1006.4 |
| 20260505122252 | 15 | 245 | 3.2 | 8.0 | 0.00 | 0.00 | 0.05 | 80 | 1006.4 |
| 20260505121752 | 15 | 237 | 1.6 | 4.8 | 0.00 | 0.00 | 0.05 | 80 | 1006.4 |
| 20260505121252 | 15 | 240 | 1.6 | 6.4 | 0.00 | 0.00 | 0.05 | 81 | 1006.4 |
| 20260505120752 | 15 | 235 | 1.6 | 4.8 | 0.00 | 0.00 | 0.05 | 85 | 1006.4 |
| 20260505120252 | 14 | 259 | 1.6 | 8.0 | 0.00 | 0.00 | 0.05 | 80 | 1006.4 |
| 20260505115751 | 14 | 246 | 3.2 | 9.7 | 0.00 | 0.00 | 0.05 | 82 | 1006.4 |
| 20260505115251 | 14 | 178 | 1.6 | 4.8 | 0.00 | 0.00 | 0.05 | 85 | 1006.8 |
| 20260505114752 | 14 | 313 | 1.6 | 6.4 | 0.00 | 0.00 | 0.05 | 87 | 1006.4 |
| 20260505114252 | 13 | 120 | 0.0 | 3.2 | 0.00 | 0.00 | 0.05 | 90 | 1006.8 |
| 20260505113751 | 13 | 354 | 0.0 | 3.2 | 0.00 | 0.00 | 0.05 | 91 | 1006.8 |
| 20260505113251 | 13 | 258 | 3.2 | 9.7 | 0.00 | 0.00 | 0.05 | 91 | 1006.8 |
| 20260505112752 | 13 | 184 | 0.0 | 4.8 | 0.00 | 0.00 | 0.05 | 91 | 1006.4 |
| 20260505112251 | 13 | 193 | 0.0 | 3.2 | 0.00 | 0.00 | 0.05 | 92 | 1006.4 |
| 20260505111751 | 13 | 244 | 1.6 | 4.8 | 0.00 | 0.00 | 0.05 | 91 | 1006.4 |
| 20260505111251 | 12 | 265 | 1.6 | 9.7 | 0.00 | 0.00 | 0.05 | 93 | 1006.4 |
| 20260505110751 | 12 | 306 | 1.6 | 9.7 | 0.00 | 0.00 | 0.05 | 93 | 1006.4 |
| 20260505110252 | 12 | 286 | 0.0 | 4.8 | 0.00 | 0.00 | 0.05 | 93 | 1006.4 |
| 20260505101751 | 15 | 320 | 6.4 | 14.5 | 0.00 | 0.00 | 0.00 | 72 | 1006.4 |
| 20260505101252 | 14 | 248 | 3.2 | 8.0 | 0.00 | 0.00 | 0.00 | 73 | 1006.1 |
| 20260505100751 | 14 | 292 | 3.2 | 9.7 | 0.00 | 0.00 | 0.00 | 73 | 1006.1 |
| 20260505100300 | 13 | 177 | 1.6 | 6.4 | 0.00 | 0.00 | 0.00 | 73 | 1006.1 |
| 20260505095751 | 13 | 64 | 1.6 | 9.7 | 0.00 | 0.00 | 0.00 | 73 | 1006.1 |
| 20260505095251 | 13 | 312 | 1.6 | 4.8 | 0.00 | 0.00 | 0.00 | 73 | 1005.8 |
| 20260505094751 | 13 | 182 | 3.2 | 14.5 | 0.00 | 0.00 | 0.00 | 72 | 1005.8 |
| 20260505094251 | 14 | 57 | 1.6 | 6.4 | 0.00 | 0.00 | 0.00 | 72 | 1005.8 |
| 20260505093752 | 14 | 156 | 1.6 | 6.4 | 0.00 | 0.00 | 0.00 | 72 | 1005.8 |
| 20260505093251 | 14 | 305 | 3.2 | 9.7 | 0.00 | 0.00 | 0.00 | 71 | 1005.8 |
| 20260505092755 | 14 | 332 | 1.6 | 4.8 | 0.00 | 0.00 | 0.00 | 71 | 1005.8 |
| 20260505092251 | 14 | 81 | 1.6 | 9.7 | 0.00 | 0.00 | 0.00 | 71 | 1005.8 |
| 20260505091751 | 14 | 190 | 3.2 | 11.3 | 0.00 | 0.00 | 0.00 | 71 | 1005.8 |
| 20260505091253 | 14 | 259 | 3.2 | 11.3 | 0.00 | 0.00 | 0.00 | 71 | 1005.4 |
| 20260505090752 | 14 | 243 | 4.8 | 14.5 | 0.00 | 0.00 | 0.00 | 71 | 1005.4 |
| 20260505090251 | 13 | 125 | 1.6 | 8.0 | 0.00 | 0.00 | 0.00 | 72 | 1005.4 |
| 20260505085752 | 14 | 179 | 3.2 | 11.3 | 0.00 | 0.00 | 0.00 | 71 | 1005.4 |
| 20260505085252 | 13 | 328 | 1.6 | 6.4 | 0.00 | 0.00 | 0.00 | 72 | 1005.4 |
| 20260505084751 | 13 | 217 | 3.2 | 9.7 | 0.00 | 0.00 | 0.00 | 71 | 1005.4 |
| 20260505084253 | 14 | 357 | 0.0 | 6.4 | 0.00 | 0.00 | 0.00 | 70 | 1005.4 |
| 20260505083751 | 14 | 313 | 1.6 | 9.7 | 0.00 | 0.00 | 0.00 | 70 | 1005.4 |
| 20260505083251 | 14 | 140 | 3.2 | 9.7 | 0.00 | 0.00 | 0.00 | 69 | 1005.4 |
| 20260505082751 | 14 | 250 | 1.6 | 3.2 | 0.00 | 0.00 | 0.00 | 69 | 1005.4 |
| 20260505082252 | 15 | 244 | 0.0 | 4.8 | 0.00 | 0.00 | 0.00 | 69 | 1005.4 |
| 20260505081751 | 15 | 199 | 3.2 | 8.0 | 0.00 | 0.00 | 0.00 | 68 | 1005.4 |
| 20260505081252 | 15 | 312 | 1.6 | 8.0 | 0.00 | 0.00 | 0.00 | 68 | 1005.4 |